User: anonymous   Login
Location: Laterina
(43.5167°N, 11.7167°E)
Time: 03:20:53
(UTC+00:00)
Language:

Cosmos 2285 Rocket - Orbit

View from above orbital plane
View from above orbital plane
View from above satellite
View from above satellite

Ground track
Ground track

The orbit data is extracted from the following two-line orbital elements,

1 23190U 94045B   20329.06094984 +.00000063 +00000-0 +90830-4 0  9996
2 23190 074.0278 181.4054 0019987 234.3809 125.5449 13.74092491319475
Epoch (UTC): 24 November 2020 01:27:46
Eccentricity: 0.0019987
inclination: 74.0278°
perigee height: 970 km
apogee height: 999 km
right ascension of ascending node: 181.4054°
argument of perigee: 234.3809°
revolutions per day: 13.74092491
mean anomaly at epoch: 125.5449°
orbit number at epoch: 31947

The dashed part of the orbit path shows where the satellite is in the earth's shadow,  

DLR